This demonstration page uses our WeatherBlox Daily Observations layout. Learn more.

Left ArrowRight Arrow

Hourly Observations for June 4, 2021

Temp ( °F °C ) Dew Point ( °F °C ) Humidity (%) Winds ( mph kmh ) Pressure ( in mb ) Visibility ( mi km ) Precip ( " mm )
12:15 am 00:15 Clear 67 19.3 55 12.6 65 65 S 9 15 29.87 1011 10 16 N/A
12:35 am 00:35 Clear 65 18.6 55 12.7 69 69 S 9 15 29.87 1012 10 16 N/A
12:55 am 00:55 Clear 67 19.3 55 12.7 66 66 S 12 19 29.88 1012 10 16 N/A
1:15 am 01:15 Clear 67 19.3 55 12.5 65 65 SSW 10 17 29.87 1011 10 16 N/A
1:35 am 01:35 Clear 66 19 54 12.3 65 65 SSW 9 15 29.87 1012 10 16 N/A
1:55 am 01:55 Clear 67 19.4 54 12 62 62 SSW 10 17 29.88 1012 10 16 N/A
2:15 am 02:15 Clear 68 20 53 11.8 59 59 SSW 13 20 29.87 1012 10 16 N/A
2:35 am 02:35 Clear 67 19.7 53 11.8 60 60 SW 13 20 29.87 1012 10 16 N/A
2:55 am 02:55 Clear 67 19.2 54 12 63 63 SSW 10 17 29.88 1012 10 16 N/A
3:15 am 03:15 Clear 66 19 53 11.8 63 63 SSW 10 17 29.88 1012 10 16 N/A
3:35 am 03:35 Clear 66 18.8 53 11.8 64 64 SSW 14 22 29.87 1012 10 16 N/A
3:55 am 03:55 Clear 65 18.5 53 11.7 65 65 SW 8 13 29.88 1012 10 16 N/A
4:15 am 04:15 Clear 65 18.4 53 11.7 65 65 SW 8 13 29.88 1012 10 16 N/A
4:35 am 04:35 Clear 64 17.7 53 11.7 68 68 SW 7 11 29.88 1012 10 16 N/A
4:55 am 04:55 Clear 64 17.8 53 11.6 67 67 SW 7 11 29.88 1012 10 16 N/A
5:15 am 05:15 Clear 63 17.1 53 11.5 70 70 N N/A 29.90 1012 10 16 N/A
5:35 am 05:35 Clear 62 16.5 53 11.5 72 72 N N/A 29.89 1012 10 16 N/A
5:55 am 05:55 Clear 62 16.9 53 11.5 71 71 N N/A 29.89 1012 10 16 N/A
6:15 am 06:15 Sunny 62 16.6 52 11.1 70 70 WSW 5 7 29.89 1012 10 16 N/A
6:35 am 06:35 Sunny 60 15.3 53 11.4 78 78 NW 3 6 29.90 1013 10 16 N/A
6:55 am 06:55 Sunny 63 17.4 53 11.7 69 69 W 3 6 29.89 1012 10 16 N/A
7:15 am 07:15 Sunny 63 17 56 13.3 79 79 N N/A 29.90 1012 10 16 N/A
7:35 am 07:35 Sunny 65 18.1 56 13.4 74 74 N N/A 29.90 1012 10 16 N/A
7:55 am 07:55 Sunny 68 19.8 56 13.2 66 66 SW 6 9 29.88 1012 10 16 N/A
8:15 am 08:15 Sunny 69 20.7 56 13.4 63 63 SW 7 11 29.88 1012 10 16 N/A
8:35 am 08:35 Sunny 71 21.7 56 13.5 60 60 WSW 9 15 29.87 1011 10 16 N/A
8:55 am 08:55 Sunny 72 22.4 58 14.2 60 60 SW 8 13 29.86 1011 10 16 N/A
9:15 am 09:15 Sunny 74 23.6 58 14.6 57 57 SW 8 13 29.85 1011 10 16 N/A
9:35 am 09:35 Sunny 76 24.5 59 14.9 55 55 WSW 8 13 29.84 1011 10 16 N/A
9:55 am 09:55 Sunny 77 24.9 59 14.8 54 54 SW 10 17 29.84 1011 10 16 N/A
10:15 am 10:15 Sunny 78 25.5 59 14.8 52 52 WSW 9 15 29.84 1010 10 16 N/A
10:35 am 10:35 Sunny 79 26.2 59 14.9 50 50 SW 13 20 29.82 1010 10 16 N/A
10:55 am 10:55 Sunny 81 27 59 15.2 48 48 SW 10 17 29.80 1009 10 16 N/A
11:15 am 11:15 Sunny 81 27.4 61 16.2 50 50 SW 10 17 29.80 1009 10 16 N/A
11:35 am 11:35 Sunny 82 27.7 60 15.8 48 48 SSW 13 20 29.80 1009 10 16 N/A
11:55 am 11:55 Sunny 83 28.1 60 15.5 46 46 SSW 14 22 29.79 1009 10 16 N/A
12:15 pm 12:15 Sunny 84 28.7 61 16 46 46 S 13 20 29.78 1008 10 16 N/A
12:35 pm 12:35 Sunny 85 29.5 59 15.1 42 42 S 15 24 29.77 1008 10 16 N/A
12:55 pm 12:55 Sunny 85 29.5 55 12.9 36 36 SW 15 24 29.76 1008 10 16 N/A
1:15 pm 13:15 Sunny 86 30 55 12.6 34 34 SW 16 26 29.76 1008 10 16 N/A
1:35 pm 13:35 Sunny 86 30.1 56 13.2 35 35 SW 13 20 29.75 1007 10 16 N/A
1:55 pm 13:55 Sunny 87 30.3 55 12.5 33 33 SW 12 19 29.75 1007 10 16 N/A
2:15 pm 14:15 Sunny 87 30.8 54 12.3 32 32 SSW 9 15 29.73 1007 10 16 N/A
2:35 pm 14:35 Sunny 88 31 52 11.2 29 29 SW 12 19 29.73 1007 10 16 N/A
2:55 pm 14:55 Sunny 88 31 52 11.2 29 29 SSW 12 19 29.73 1007 10 16 N/A
3:15 pm 15:15 Sunny 88 31.1 53 11.4 30 30 SSW 9 15 29.72 1006 10 16 N/A
3:35 pm 15:35 Sunny 88 31.1 51 10.8 29 29 SSW 10 17 29.72 1006 10 16 N/A
3:55 pm 15:55 Sunny 88 31.3 52 11.1 29 29 S 16 26 29.71 1006 10 16 N/A
4:15 pm 16:15 Sunny 89 31.5 53 11.4 29 29 SSW 12 19 29.71 1006 10 16 N/A
4:35 pm 16:35 Partly Cloudy 89 31.5 53 11.4 29 29 SSW 12 19 29.71 1006 10 16 N/A
4:55 pm 16:55 Sunny 89 31.4 51 10.8 28 28 SSW 15 24 29.70 1006 10 16 N/A
5:15 pm 17:15 Sunny 88 31.3 55 12.7 32 32 SSW 10 17 29.70 1006 10 16 N/A
5:35 pm 17:35 Sunny 88 31 53 11.8 31 31 SSW 10 17 29.69 1005 10 16 N/A
5:55 pm 17:55 Sunny 88 31 52 11.2 29 29 SSW 12 19 29.69 1005 10 16 N/A
6:15 pm 18:15 Sunny 87 30.5 53 11.6 31 31 S 14 22 29.70 1006 10 16 N/A
6:35 pm 18:35 Sunny 86 30.1 52 11.3 31 31 S 15 24 29.70 1006 10 16 N/A
6:55 pm 18:55 Sunny 86 30 54 12.1 33 33 S 10 17 29.69 1005 10 16 N/A
7:15 pm 19:15 Sunny 85 29.5 55 12.9 36 36 S 13 20 29.69 1006 10 16 N/A
7:35 pm 19:35 Sunny 84 28.7 56 13.3 39 39 S 13 20 29.70 1006 10 16 N/A
7:55 pm 19:55 Sunny 83 28.2 56 13.3 40 40 S 10 17 29.70 1006 10 16 N/A
8:15 pm 20:15 Sunny 81 27.2 57 14 44 44 S 10 17 29.71 1006 10 16 N/A
8:35 pm 20:35 Sunny 80 26.7 57 13.8 45 45 S 10 17 29.73 1007 10 16 N/A
8:55 pm 20:55 Sunny 78 25.8 56 13.4 46 46 SSE 12 19 29.73 1007 10 16 N/A
9:15 pm 21:15 Clear 77 24.9 55 12.9 47 47 S 12 19 29.74 1007 10 16 N/A
9:35 pm 21:35 Clear 76 24.2 55 12.6 48 48 S 10 17 29.75 1007 10 16 N/A
9:55 pm 21:55 Clear 75 23.7 55 12.5 50 50 S 12 19 29.75 1007 10 16 N/A
10:15 pm 22:15 Clear 74 23.2 55 12.5 51 51 S 12 19 29.77 1008 10 16 N/A
10:35 pm 22:35 Clear 73 23 55 12.5 52 52 S 13 20 29.77 1008 10 16 N/A
10:55 pm 22:55 Clear 73 22.6 55 12.5 53 53 S 13 20 29.77 1008 10 16 N/A
11:15 pm 23:15 Clear 73 22.8 54 12.3 52 52 S 13 20 29.77 1008 10 16 N/A
11:35 pm 23:35 Clear 73 22.5 55 12.6 54 54 S 13 20 29.77 1008 10 16 N/A
11:55 pm 23:55 Clear 72 22.1 55 12.9 56 56 S 12 19 29.76 1008 10 16 N/A

Powered by AerisWeather